Location: Schommer Observatory
(40.5200°N, 74.4500°W)
Time: 12:01:00
(UTC-04:00)

ISS - Pass Details

Date: 22 May 2018
Orbit: 402 x 407 km, 51.6° (Epoch: 23 May)

Event Time Altitude Azimuth Distance (km) Brightness Sun altitude
Rises 03:17:21 0° 310° (NW) 2,319 0.1 -20.6°
Reaches altitude 10° 03:19:31 10° 318° (NW) 1,457 -0.9 -20.4°
Maximum altitude 03:22:38 41° 31° (NNE) 597 -2.5 -20.0°
Drops below altitude 10° 03:25:44 10° 103° (ESE) 1,451 -0.7 -19.7°
Sets 03:27:52 0° 111° (ESE) 2,307 0.2 -19.4°
